Location: Observatoire de Paris
(48.8363°N, 2.3365°E)
Time: 03:42:20
(UTC+01:00)

METEOR M2 - Pass Details

Date: 25 September 2021
Orbit: 819 x 826 km, 98.5° (Epoch: 19 October)

Event Time Altitude Azimuth Distance (km) Brightness Sun altitude
Rises 20:12:06 0° 190° (S) 3,337 ? -15.5°
Reaches altitude 10° 20:14:38 10° 200° (SSW) 2,410 ? -15.9°
Maximum altitude 20:19:28 34° 265° (W) 1,321 ? -16.7°
Drops below altitude 10° 20:24:21 10° 330° (NNW) 2,428 ? -17.4°
Sets 20:26:55 0° 339° (NNW) 3,367 ? -17.8°
